Regional Weather Roundup
Issued by NWS

Home | Current Version | Previous Version | Text Only | Print | Product List | Glossary On
Versions: 1 2 3 4 5 6 7 8 9 10 11 12 13 14 15 16 17 18 19 20 21 22 23 24 25 26 27 28 29 30 31 32 33 34 35 36 37 38 39 40 41 42 43 44 45 46 47 48 49 50
000
ASUS43 KDTX 201010
RWRMI
MICHIGAN HOURLY REGIONAL WEATHER ROUNDUP
NATIONAL WEATHER SERVICE DETROIT/PONTIAC MI
600 AM EDT FRI OCT 20 2017

NOTE: "FAIR" INDICATES FEW OR NO CLOUDS BELOW 12,000 FEET WITH NO
SIGNIFICANT WEATHER AND/OR OBSTRUCTION TO VISIBILITY.

MIZ047>049-052>055-059>063-066>070-074>076-081>083-201100-
SOUTHEAST LOWER MICHIGAN

CITY           SKY/WX    TMP DP  RH WIND       PRES   REMARKS
ADRIAN         FAIR      41  33  73 CALM      30.25R
ALMA           FAIR      37  34  88 CALM      30.20R
ANN ARBOR      FAIR      37  33  85 CALM      30.23R
BAD AXE        FAIR      37  32  84 CALM      30.21R
CARO           FAIR      35  33  92 CALM      30.21R
DETROIT CITY   FAIR      44  36  73 CALM      30.24R
DETROIT        FAIR      46  36  68 CALM      30.25R
FLINT          FAIR      37  34  89 CALM      30.23R
GROSSE ILE     FAIR      46  34  62 CALM      30.23R
HILLSDALE      FAIR      43  28  56 CALM      30.23R
HOWELL         FAIR      40  36  87 CALM      30.22R

CITY           SKY/WX    TMP DP  RH WIND       PRES   REMARKS
JACKSON        FAIR      39  35  86 SW5       30.23R
LAMBERTVILLE   FAIR      42  36  79 CALM      30.25R
LANSING        FAIR      41  34  76 SE3       30.22R
LAPEER         FAIR      36  35  99 CALM      30.23R
MASON          FAIR      40  37  87 CALM      30.22R
MONROE         FAIR      39  34  81 CALM      30.23R
MT. CLEMENS    FAIR      43  38  83 CALM      30.22R
PONTIAC        FAIR      41  35  79 CALM      30.23R
PORT HOPE        N/A     49  37  63 SW9       30.18R
PORT HURON     FAIR      37  36  93 CALM      30.23R
TRI CITIES     FAIR      47  37  68 S8        30.20S
MIDLAND        FAIR      37  36  96 CALM      30.19R
TROY           FAIR      45  34  65 CALM      30.25R
SAGINAW HB     FAIR      41  34  75 S6        30.20R
$$
MIZ043>046-050>051-056>058-064>065-071>073-077>080-201100-
SOUTHWEST LOWER MICHIGAN

CITY           SKY/WX    TMP DP  RH WIND       PRES   REMARKS
BATTLE CREEK   FAIR      44  36  73 SE3       30.21S
BENTON HARBOR  FAIR      51  37  58 SE5       30.19R
BIG RAPIDS     FAIR      37  35  91 SW6       30.17S WCI  32
COLDWATER      FAIR      40  40  99 CALM      30.22R
FREMONT        FAIR      44  36  74 CALM      30.16S
HOLLAND        FAIR      46  35  65 CALM      30.18S
GRAND RAPIDS   FAIR      43  36  76 S9        30.19R
IONIA          FAIR      42  33  72 S3        30.19S
KALAMAZOO      FAIR      43  36  76 CALM      30.21R
LUDINGTON      FAIR      44  38  82 CALM      30.13R
MARSHALL       FAIR      38  37  92 CALM      30.22R
MOUNT PLEASANT FAIR      41  38  87 CALM      30.18S
MUSKEGON       FAIR      46  36  68 CALM      30.16S
SOUTH HAVEN    FAIR      51  36  55 S3        30.19R
$$
MIZ016>042-201100-
NORTHERN LOWER MICHIGAN

CITY           SKY/WX    TMP DP  RH WIND       PRES   REMARKS
ALPENA         FAIR      40  34  79 CALM      30.16R
BEAVER ISLAND  FAIR      56  50  82 S5        30.08S
BELLAIRE       FAIR      36  34  94 CALM      30.14R
CADILLAC       FAIR      38  33  80 CALM      30.15R
CHARLEVOIX     FAIR      46  39  78 SE6       30.14R
FRANKFORT      FAIR      59  37  44 S6        30.11S
GAYLORD        FAIR      42  35  76 CALM      30.14S
GRAYLING       FAIR      31  28  85 CALM      30.16S
HARBOR SPRINGS FAIR      50  37  60 SW6       30.11S
HOUGHTON LAKE  FAIR      38  33  82 CALM      30.17R
MANISTEE       FAIR      41  38  89 VRB5      30.13R
OSCODA         FAIR      44  32  61 SW9       30.17R
PELLSTON       FAIR      48  39  71 S6        30.11S
ROGERS CITY    FAIR      49  33  54 SW8       30.14R
TRAVERSE CITY  FAIR      51  36  56 SE5       30.11S
$$
MIZ007>008-015-201100-
EASTERN UPPER MICHIGAN

CITY           SKY/WX    TMP DP  RH WIND       PRES   REMARKS
KINROSS        FAIR      51  48  89 S6        30.08S
MACKINAC ISLAN FAIR      54  43  66 S9        30.08S
NEWBERRY       FAIR      50  49  97 S9        30.06S
S. S. MARIE    FAIR      42  39  89 E5        30.07S
MUNISING         N/A     53  38  56 SW12      30.02S
$$
MIZ004>006-011>014-085-201100-
CENTRAL UPPER MICHIGAN

CITY           SKY/WX    TMP DP  RH WIND       PRES   REMARKS
MANISTIQUE     FAIR      53  45  74 S7        30.06S
ESCANABA       FAIR      52  40  63 SW7       30.05R
MENOMINEE      FAIR      51  40  65 CALM      30.06S
SAWYER-GWINN   FAIR      43  35  74 S8        30.02S
$$
MIZ001>003-009>011-084-201100-
WESTERN UPPER MICHIGAN

CITY           SKY/WX    TMP DP  RH WIND       PRES   REMARKS
IRON MOUNTAIN  FAIR      43  34  70 SE3       30.02R
HOUGHTON       FAIR      50  35  56 S3        29.93S
COPPER HARBOR    N/A     56  35  45 SW8G17    29.92S
IRONWOOD       FAIR      55  40  56 SW12      29.93F
$$

ABBREVIATIONS USED IN REMARKS
   TC - TEMPERATURE IN CELSIUS
  WCI - WIND CHILL INDEX
   HX - HEAT INDEX
  VSB - VISIBILITY





USA.gov is the U.S. government's official web portal to all federal, state and local government web resources and services.